This is the latest recevied weather packets stored in our database for station/object KF0PEC-15. If no packets are shown the sender has not sent any weather packets the latest 1 day(s).
| Time | Temp. | Humidity | Pressure | Rain* | Wind** | Luminosity | Snow |
|---|---|---|---|---|---|---|---|
| 1778022139 | 2.78° C | 94% | 1017.3 hPa | 0 mm | 1.34 m/s, 151° | 289 W/m² | - |
| 1778021584 | 2.78° C | 94% | 1017.1 hPa | 0 mm | 1.34 m/s, 165° | 310 W/m² | - |
| 1778020990 | 2.78° C | 94% | 1016.8 hPa | 0 mm | 1.34 m/s, 145° | 289 W/m² | - |
| 1778020405 | 2.78° C | 94% | 1017 hPa | 0 mm | 0.89 m/s, 154° | 461 W/m² | - |
| 1778019830 | 2.78° C | 94% | 1016.9 hPa | 0 mm | 0.89 m/s, 156° | 499 W/m² | - |
| 1778019305 | 2.78° C | 94% | 1017.2 hPa | 0 mm | 1.34 m/s, 145° | 524 W/m² | - |
| 1778018790 | 2.78° C | 94% | 1017.2 hPa | 0 mm | 0.89 m/s, 135° | 452 W/m² | - |
| 1778018205 | 3.33° C | 94% | 1017.2 hPa | 0 mm | 1.79 m/s, 147° | 382 W/m² | - |
| 1778017724 | 3.33° C | 94% | 1017.5 hPa | 0 mm | 0.89 m/s, 156° | 711 W/m² | - |
| 1778017210 | 3.33° C | 94% | 1017.5 hPa | 0 mm | 0.89 m/s, 158° | 675 W/m² | - |
| 1778016695 | 2.78° C | 94% | 1017.7 hPa | 0 mm | 0.89 m/s, 150° | 547 W/m² | - |
| 1778016190 | 3.33° C | 94% | 1017.4 hPa | 0 mm | 0.89 m/s, 133° | 568 W/m² | - |
| 1778015652 | 3.33° C | 94% | 1017.5 hPa | 0 mm | 1.34 m/s, 150° | 841 W/m² | - |
| 1778015145 | 3.33° C | 94% | 1017.6 hPa | 0 mm | 1.34 m/s, 163° | 882 W/m² | - |
| 1778014570 | 3.33° C | 94% | 1017.9 hPa | 0 mm | 0.89 m/s, 148° | 803 W/m² | - |
| 1778014019 | 3.33° C | 94% | 1017.7 hPa | 0 mm | 1.34 m/s, 148° | 830 W/m² | - |
| 1778013445 | 3.33° C | 94% | 1017.6 hPa | 0 mm | 0.89 m/s, 135° | 944 W/m² | - |
| 1778012929 | 3.33° C | 94% | 1017.7 hPa | 0 mm | 0.89 m/s, 145° | 115 W/m² | - |
| 1778012399 | 3.33° C | 94% | 1017.9 hPa | 0 mm | 1.34 m/s, 135° | 936 W/m² | - |
| 1778011804 | 3.33° C | 94% | 1018.1 hPa | 0 mm | 1.34 m/s, 134° | 984 W/m² | - |
| 1778011319 | 3.33° C | 94% | 1018.1 hPa | 0 mm | 1.34 m/s, 161° | 103 W/m² | - |
| 1778010755 | 3.33° C | 94% | 1018.2 hPa | 0 mm | 0.89 m/s, 143° | 607 W/m² | - |
| 1778010170 | 3.33° C | 94% | 1018.2 hPa | 0 mm | 0.89 m/s, 153° | 698 W/m² | - |
| 1778009599 | 3.33° C | 94% | 1018.4 hPa | 0 mm | 0.89 m/s, 146° | 542 W/m² | - |
| 1778009105 | 3.89° C | 94% | 1017.8 hPa | 0 mm | 0.89 m/s, 159° | 684 W/m² | - |
* Rain latest hour (hover to see other rain measurements)
** Current wind speed in m/s (hover to see current wind gust speed)